Showing default

TOMORROW-S4, 62386

Orbit data source: Space-Track

TOMORROW-S4, 62386 is a payload satellite owned by Tomorrow.io (US) in LEO that was launched on Sat, 21 Dec 2024 UTC via an FALCON 9 launch vehicle from the Air Force Western Test Range (AFWTR). Payload-class satellites include a variety of spacecraft equipped with specific instruments for various scientific and technological missions. These include communications satellites like Starlink; space stations such as the ISS; scientific satellites like the Hubble; Earth observation satellites from companies like Planet Labs, Umbra, and HawkEye 360; GPS; miniature CubeSats for education and research; and military/defense satellites.

Loading next visibility...
Identifier
62386, 2024-247K
Orbit
LEO
Last TLE update
1 day ago
Origin
Manufacturer
Blue Canyon
Mission
Operational Commercial Weather
Bus & Motor
CUBESAT 6U, Unknown motor
Mass
12 kg wet, 12 kg dry
Launch date (UTC)
2024-12-21 (5 months ago)
Launch vehicle
FALCON 9
Launch site
Air Force Western Test Range (AFWTR)
Object type
Payload
Rocket body
Debris
Shape & HBR
Box + 2 Pan, 1.2 m
Radar Cross Section
0.138 m², Medium (>0.1 m² and < 1m²)

Expand to show TLE details & history

TLE from 1 day ago
0 TOMORROW-S4
1 62386U 24247K   25128.28193703  .00005375  00000-0  24060-3 0  9990
2 62386  44.9949 337.3007 0005496 225.5327 134.5105 15.22353540 21113
Epoch: 2025-05-08T06:45Z
Definitive object data (Epoch: 2025-05-08T06:45:59.359Z)
Latitude
-0.00001°
Longitude
9.44869°
Altitude
501.392 km
Speed
7.614 km/s
True Right ascension
22h 29m 12s
True Declination
0° 00' 00"
Sunlit
Object was in daylight at TLE epoch
Visualization TLE readout
Latitude
27.00002°
Longitude
32.7495°
Altitude
502.722 km
Speed
7.615 km/s
Apparent Right ascension
03h 17m 14s
Apparent Declination
-21° 58' 28"
Sunlit
Object is in daylight
Visualization observer readout
Local Sidereal Time
22:36:23
Azimuth
119.238° SE
Elevation
0.038°
Doppler factor
1
Orbital elements
Apogee altitude
504.131 km
Perigee altitude
496.57 km
Semi-major axis
6,878.487 km
Eccentricity
0.0005496
Inclination
44.9949°
RAAN
337.3007°
Arg. of periapsis
225.5327°
True anomaly
134.55539°
Mean anomaly
134.5105°
Eccentric anomaly
134.53295°
Mean motion
3.80455 °/min
BSTAR
0.0002406
Orbital period
94.62 mins
Loading maneuver chart data...
Loading SW <> Apogee altitude chart data...
Loading historical data...
Loading historical data...
Loading historical data...
Loading historical data...
Loading historical data...
Loading historical data...
Loading historical data...

TOMORROW-S4 Visibility forecast

Observer location: undefined°, undefined°

Span
Click to sort rows by Start time (UTC) header in descending order
Start Az.
Max El. time (UTC)
Max El. Az.
Max El.
End time (UTC)
End Az.
5 mins2025-05-09 16:01:14.238Z183.981° SSW2025-05-09 16:03:14.238Z146.024° SSE20.384°2025-05-09 16:06:14.238Z92.02° ESE
5 mins2025-05-09 17:40:14.238Z252.097° W2025-05-09 17:42:14.238Z330.214° NNW44.652°2025-05-09 17:45:14.238Z64.525° ENE
6 mins2025-05-09 19:19:14.238Z294.087° NW2025-05-09 19:21:14.238Z336.635° NNW30.908°2025-05-09 19:25:14.238Z65.276° ENE
5 mins2025-05-09 20:59:14.238Z308.133° NW2025-05-09 21:01:14.238Z10.598° NNE37.594°2025-05-09 21:04:14.238Z87.554° E
5 mins2025-05-09 22:38:14.238Z275.679° WNW2025-05-09 22:40:14.238Z222.798° SW35.56°2025-05-09 22:43:14.238Z142.414° SSE
|